SCP
0 0 0 0 0 0 0 0 0 0 0 0 0 0 0 0 0 0 0 0 0 0 0 0 0 0 0 0 0 0 0 0 0 0 0 0 0 0 0 0 0 0 0 0 0 0 0 0 0
0 0 0 0 0 0 0 0 0 0 0 0 0 0 0 0 0 0 0 0 0 0 0 0 0 0 0 0 0 0 0 0 0 0 0 0 0 0 0 0 0 0 0 0 0 0 0 0 0
0 0 0 0 0 0 0 0 0 0 0 0 0 0 0 0 0 0 0 0 0 0 0 0 0 0 0 0 0 0 0 0 0 0 0 0 0 0 0 0 0 0 0 0 0 0 0 0 0
0 0 0 0 0 0 0 0 0 0 0 0 0 0 0 0 0 0 0 0 0 0 0 0 0 0 0 0 0 0 0 0 0 0 0 0 0 0 0 0 0 0 0 0 0 0 0 0 0
0 0 0 0 0 0 0 0 0 0 0 0 0 0 0 0 0 0 0 0 0 0 0 0 0 0 0 0 0 0 0 0 0 0 0 0 0 0 0 0 0 0 0 0 0 0 0 0 0
0 0 0 0 0 0 0 0 0 0 0 0 0 0 0 0 0 0 0 0 0 0 0 0 0 0 0 0 0 0 0 0 0 0 0 0 0 0 0 0 0 0 0 0 0 0 0 0 0
0 0 0 0 0 0 0 0 0 0 0 0 0 0 0 0 0 0 0 0 0 0 0 0 0 0 0 0 0 0 0 0 0 0 0 0 0 0 0 0 0 0 0 0 0 0 0 0 0
0 0 0 0 0 0 0 0 0 0 0 0 0 0 0 0 0 0 0 0 0 0 0 0 0 0 0 0 0 0 0 0 0 0 0 0 0 0 0 0 0 0 0 0 0 0 0 0 0
0 0 0 0 0 0 0 0 0 0 0 0 0 0 0 0 0 0 0 0 0 0 0 0 0 0 0 0 0 0 0 0 0 0 0 0 0 0 0 0 0 0 0 0 0 0 0 0 0
0 0 0 0 0 0 0 0 0 0 0 0 0 0 0 0 0 0 0 0 0 0 0 0 0 0 0 0 0 0 0 0 0 0 0 0 0 0 0 0 0 0 0 0 0 0 0 0 0
0 0 0 0 0 0 0 0 0 0 0 0 0 0 0 0 0 0 0 0 0 0 0 0 0 0 0 0 0 0 0 0 0 0 0 0 0 0 0 0 0 0 0 0 0 0 0 0 0
0 0 0 0 0 0 0 0 0 0 0 0 0 0 0 0 0 0 0 0 0 0 0 0 0 0 0 0 0 0 0 0 0 0 0 0 0 0 0 0 0 0 0 0 0 0 0 0 0
0 0 0 0 0 0 0 0 0 0 0 0 0 0 0 0 0 0 0 0 0 0 0 0 0 0 0 0 0 0 0 0 0 0 0 0 0 0 0 0 0 0 0 0 0 0 0 0 0
0 0 0 0 0 0 0 0 0 0 0 0 0 0 0 0 0 0 0 0 0 0 0 0 0 0 0 0 0 0 0 0 0 0 0 0 0 0 0 0 0 0 0 0 0 0 0 0 0
0 0 0 0 0 0 0 0 0 0 0 0 0 0 0 0 0 0 0 0 0 0 0 0 0 0 0 0 0 0 0 0 0 0 0 0 0 0 0 0 0 0 0 0 0 0 0 0 0
0 0 0 0 0 0 0 0 0 0 0 0 0 0 0 0 0 0 0 0 0 0 0 0 0 0 0 0 0 0 0 0 0 0 0 0 0 0 0 0 0 0 0 0 0 0 0 0 0
0 0 0 0 0 0 0 0 0 0 0 0 0 0 0 0 0 0 0 0 0 0 0 0 0 0 0 0 0 0 0 0 0 0 0 0 0 0 0 0 0 0 0 0 0 0 0 0 0
0 0 0 0 0 0 0 0 0 0 0 0 0 0 0 0 0 0 0 0 0 0 0 0 0 0 0 0 0 0 0 0 0 0 0 0 0 0 0 0 0 0 0 0 0 0 0 0 0
0 0 0 0 0 0 0 0 0 0 0 0 0 0 0 0 0 0 0 0 0 0 0 0 0 0 0 0 0 0 0 0 0 0 0 0 0 0 0 0 0 0 0 0 0 0 0 0 0
0 0 0 0 0 0 0 0 0 0 0 0 0 0 0 0 0 0 0 0 0 0 0 0 0 0 0 0 0 0 0 0 0 0 0 0 0 0 0 0 0 0 0 0 0 0 0 0 0
0 0 0 0 0 0 0 0 0 0 0 0 0 0 0 0 0 0 0 0 0 0 0 0 0 0 0 0 0 0 0 0 0 0 0 0 0 0 0 0 0 0 0 0 0 0 0 0 0
0 0 0 0 0 0 0 0 0 0 0 0 0 0 0 0 0 0 0 0 0 0 0 0 0 0 0 0 0 0 0 0 0 0 0 0 0 0 0 0 0 0 0 0 0 0 0 0 0
0 0 0 0 0 0 0 0 0 0 0 0 0 0 0 0 0 0 0 0 0 0 0 0 0 0 0 0 0 0 0 0 0 0 0 0 0 0 0 0 0 0 0 0 0 0 0 0 0
0 0 0 0 0 0 0 0 0 0 0 0 0 0 0 0 0 0 0 0 0 0 0 0 0 0 0 0 0 0 0 0 0 0 0 0 0 0 0 0 0 0 0 0 0 0 0 0 0
0 0 0 0 0 0 0 0 0 0 0 0 0 0 0 0 0 0 0 0 0 0 0 0 0 0 0 0 0 0 0 0 0 0 0 0 0 0 0 0 0 0 0 0 0 0 0 0 0
0 0 0 0 0 0 0 0 0 0 0 0 0 0 0 0 0 0 0 0 0 0 0 0 0 0 0 0 0 0 0 0 0 0 0 0 0 0 0 0 0 0 0 0 0 0 0 0 0
0 0 0 0 0 0 0 0 0 0 0 0 0 0 0 0 0 0 0 0 0 0 0 0 0 0 0 0 0 0 0 0 0 0 0 0 0 0 0 0 0 0 0 0 0 0 0 0 0
0 0 0 0 0 0 0 0 0 0 0 0 0 0 0 0 0 0 0 0 0 0 0 0 0 0 0 0 0 0 0 0 0 0 0 0 0 0 0 0 0 0 0 0 0 0 0 0 0
0 0 0 0 0 0 0 0 0 0 0 0 0 0 0 0 0 0 0 0 0 0 0 0 0 0 0 0 0 0 0 0 0 0 0 0 0 0 0 0 0 0 0 0 0 0 0 0 0
0 0 0 0 0 0 0 0 0 0 0 0 0 0 0 0 0 0 0 0 0 0 0 0 0 0 0 0 0 0 0 0 0 0 0 0 0 0 0 0 0 0 0 0 0 0 0 0 0
Wind_Speed
6 7 4 2 2 2 2 4 6 6 6 6 6 10 13 13 9 8 3 7 13 14 13 12 12 12 11 11 11 10 10 10 10 9 9 8 8 7 6 6 6 5 4 4 4 5 5 6 6
6 5 3 2 2 0 3 5 7 6 5 4 8 12 13 12 12 9 5 8 13 13 11 12 12 12 11 11 11 11 10 10 9 9 8 8 7 7 6 6 5 5 5 4 5 5 5 5 5
8 6 3 2 2 1 3 5 5 5 6 6 9 13 10 9 11 7 7 10 13 13 12 12 12 12 11 11 11 10 9 9 8 8 7 7 7 7 6 6 5 5 4 4 4 5 5 5 5
3 2 3 3 1 4 6 6 5 6 6 7 9 11 10 11 9 10 10 12 13 13 13 11 12 12 11 10 10 9 9 8 8 7 7 6 6 6 6 6 5 5 5 4 4 4 4 4 5
2 3 3 2 2 6 6 7 5 5 7 10 14 12 10 13 13 12 9 11 13 13 12 11 12 12 11 10 9 9 8 8 7 7 6 6 5 5 5 5 5 5 5 4 4 4 4 5 5
2 3 2 0 4 6 5 5 5 6 7 9 11 12 8 10 11 10 9 9 10 12 12 11 12 12 11 10 9 8 7 7 6 6 5 4 3 3 3 3 4 5 5 5 5 5 4 4 4
2 3 3 1 4 4 5 4 5 5 7 7 8 10 9 10 8 8 9 8 8 9 10 10 10 10 10 10 9 7 6 5 4 2 1 1 2 3 2 1 2 4 4 5 5 5 5 5 5
2 3 4 2 4 4 4 4 6 7 5 5 6 8 9 10 9 9 8 7 7 6 6 7 8 9 9 7 9 7 5 4 2 2 3 4 6 6 5 3 1 2 3 4 5 5 6 7 7
3 2 2 2 3 3 3 5 6 5 5 7 10 11 13 13 11 9 7 7 5 6 5 6 6 5 6 6 8 7 6 5 4 4 6 6 3 2 4 3 3 2 4 5 6 7 8 9 8
2 1 0 2 3 4 3 4 4 4 6 8 11 12 14 12 10 9 8 8 7 6 5 5 5 5 4 4 5 3 3 3 3 1 1 2 1 1 2 3 4 5 7 7 8 10 10 8 4
3 1 1 3 4 3 3 3 3 4 5 7 10 12 11 10 9 7 7 7 7 6 5 5 4 5 4 3 3 1 1 1 1 1 1 1 2 2 1 0 2 3 5 3 3 6 5 3 2
2 1 0 3 3 2 3 4 5 5 5 7 10 11 10 9 7 6 6 7 6 5 4 4 3 4 5 4 1 1 1 1 1 2 3 2 2 2 2 1 2 2 1 2 2 3 3 3 2
3 2 2 2 2 2 4 4 5 6 6 8 10 10 8 7 7 5 6 7 7 6 4 3 3 4 5 3 0 2 2 1 1 1 2 2 2 2 2 2 1 2 2 2 3 4 3 3 3
2 3 2 2 2 2 3 3 4 6 7 8 8 7 7 6 6 6 6 6 7 6 6 4 3 4 3 2 1 2 1 1 2 2 3 2 1 2 2 3 2 2 2 2 2 4 3 3 2
3 4 5 3 3 3 2 4 5 6 7 7 7 6 6 6 5 5 5 5 7 6 6 5 4 3 3 3 2 2 1 2 2 2 3 4 2 2 2 3 3 3 3 4 3 4 3 3 3
6 6 4 4 4 4 3 4 5 5 6 6 6 6 5 4 5 5 5 5 6 6 6 5 4 4 4 3 2 2 3 3 2 2 3 5 4 4 3 2 3 3 3 3 3 2 3 3 3
6 5 6 6 5 5 4 4 3 4 4 4 5 6 5 4 4 5 5 6 6 6 6 6 4 4 4 3 2 2 2 1 1 2 3 4 5 5 3 2 2 4 3 3 4 3 3 3 4
7 6 7 7 7 6 6 6 5 5 4 4 4 4 5 4 3 5 5 5 5 5 6 6 5 3 4 2 1 2 1 1 2 2 2 2 3 4 3 2 3 3 2 3 3 4 3 3 3
3 4 6 7 8 6 8 8 7 5 4 3 4 3 3 4 4 4 5 5 4 4 5 5 5 5 4 2 1 1 1 1 1 1 2 2 2 2 2 2 2 2 2 3 4 3 4 3 3
3 5 6 7 7 7 9 8 8 7 5 3 4 4 5 4 5 5 5 5 4 4 3 5 4 5 5 2 1 1 1 0 1 0 1 1 2 2 3 3 3 2 1 2 3 2 2 3 3
4 4 5 7 7 7 8 7 8 9 7 6 6 5 5 6 6 5 4 4 3 3 3 3 3 5 5 4 1 1 1 1 0 1 1 1 0 1 2 3 3 2 2 1 2 2 2 2 3
3 4 6 7 6 5 5 5 7 8 7 6 5 5 6 6 6 5 4 4 3 3 2 2 3 3 4 4 2 1 1 0 0 0 1 1 1 0 0 2 3 2 2 2 2 2 2 2 2
3 3 4 6 5 5 5 5 5 6 6 6 5 6 6 6 6 6 5 4 4 4 4 3 3 4 3 3 3 0 1 1 1 1 0 1 1 1 1 2 2 2 1 2 2 2 2 1 1
4 4 4 3 3 3 7 5 5 4 6 6 6 7 6 6 7 6 6 5 5 5 4 4 4 4 3 2 2 1 0 1 2 2 1 1 1 1 1 1 1 1 1 2 2 2 1 1 2
4 3 2 3 2 4 8 6 6 7 8 8 7 7 7 6 7 6 6 6 5 5 4 3 4 3 1 1 1 1 1 2 2 2 1 2 1 0 0 1 1 1 1 1 2 2 2 1 1
4 2 1 2 4 5 6 7 8 8 8 8 8 8 8 7 7 7 6 5 4 4 3 3 3 2 1 1 1 1 1 1 1 1 1 2 1 1 1 1 1 1 1 1 1 2 2 2 1
3 5 6 4 3 4 7 10 9 8 8 8 8 7 7 7 7 6 5 5 4 4 3 3 3 2 1 1 1 1 1 1 1 2 2 2 2 2 2 2 2 2 2 2 1 1 2 2 1
5 5 3 4 3 3 8 9 7 8 7 7 7 6 6 6 6 6 5 5 4 4 3 2 2 2 2 2 2 1 1 1 1 2 2 2 3 2 3 4 3 3 2 2 2 2 2 2 2
5 4 2 3 1 2 4 5 7 9 8 7 7 6 6 6 6 5 4 4 4 3 3 3 2 2 2 2 2 2 2 2 2 2 2 3 3 3 4 4 4 3 2 2 2 2 2 3 3
4 3 2 2 1 1 3 6 7 8 8 7 7 6 6 5 5 5 4 4 3 3 3 2 2 2 2 2 2 2 2 3 3 3 3 3 4 3 4 4 4 3 3 3 2 3 3 3 3
Wind_Direction
261 251 251 269 268 246 56 65 70 63 60 50 53 66 69 56 55 87 129 105 107 109 110 102 98 97 95 92 90 87 83 79 76 72 67 62 56 51 46 41 38 35 31 23 16 9 7 8 7
267 262 268 254 272 50 67 70 69 72 75 68 66 70 73 70 81 98 105 97 103 104 103 100 99 96 94 93 90 86 82 78 75 70 66 59 53 45 39 33 27 25 21 18 13 5 0 2 1
259 261 264 258 274 63 94 88 91 84 75 72 77 67 55 67 81 99 117 108 104 102 100 101 101 98 95 92 89 85 81 76 73 68 63 57 50 42 35 30 23 18 11 6 3 359 352 352 354
258 262 253 257 75 77 102 107 98 89 73 67 75 73 63 65 90 114 123 117 109 106 106 108 106 102 97 92 89 86 79 75 72 66 60 55 48 42 35 27 19 13 5 357 355 351 345 343 345
253 258 260 255 89 88 94 103 100 81 71 71 80 86 83 87 102 113 116 115 115 114 115 118 115 111 103 95 90 84 78 73 70 64 56 49 43 37 29 22 18 12 5 359 351 343 337 336 335
269 260 263 276 87 89 91 98 92 79 71 78 93 97 93 102 104 108 106 105 112 118 122 124 125 122 115 106 98 88 80 72 67 62 53 40 25 18 19 25 18 11 3 354 345 335 324 321 320
272 281 270 130 91 85 92 93 88 82 70 66 90 101 112 110 112 114 109 105 104 114 127 136 144 136 128 121 113 105 96 87 77 69 32 319 299 286 282 15 19 1 353 343 335 329 316 304 298
272 294 304 50 95 85 88 87 86 88 77 66 79 104 124 130 129 119 115 117 119 118 121 129 137 140 144 139 134 136 142 147 164 220 249 268 269 255 245 223 173 323 318 312 308 302 296 289 281
264 287 340 26 101 111 103 94 90 93 94 74 72 100 123 135 133 130 131 126 122 119 125 123 121 125 139 148 143 163 176 188 208 222 242 261 267 243 217 144 155 242 276 278 278 279 278 277 269
215 261 314 30 83 105 100 94 108 110 103 97 96 105 125 140 144 149 148 141 138 136 133 128 130 135 137 113 132 166 163 171 203 156 241 266 299 324 0 139 202 242 258 266 263 268 272 266 253
208 190 82 79 72 93 105 98 79 88 95 109 122 129 138 146 152 153 145 137 135 138 130 126 138 133 120 113 114 113 115 146 112 19 349 345 355 347 22 151 202 246 259 272 266 257 256 248 248
183 133 183 76 75 75 78 80 79 68 83 110 121 134 143 155 153 151 135 125 125 116 120 121 120 119 105 89 93 132 79 52 37 20 9 18 9 336 11 341 14 334 343 354 327 297 304 323 315
193 145 111 90 105 83 81 85 89 92 99 115 124 136 151 150 148 139 119 121 120 127 121 102 101 91 94 101 280 83 81 35 49 39 352 23 20 352 360 339 17 344 350 354 340 316 338 330 311
178 130 142 170 142 115 121 126 115 108 115 119 126 139 149 150 148 136 132 130 123 135 130 123 102 93 100 119 103 88 92 130 53 37 350 19 38 5 0 354 10 354 338 342 329 318 327 308 306
169 180 173 174 160 132 116 90 99 119 123 126 135 140 139 147 147 140 134 132 127 132 128 125 122 104 81 60 35 73 67 59 51 54 1 1 21 21 28 2 356 350 340 342 337 335 330 317 313
204 201 170 154 161 129 116 106 125 122 131 134 142 137 137 149 161 149 146 134 128 126 124 127 121 118 102 82 33 23 49 41 27 53 27 0 4 15 36 7 351 344 348 345 329 334 332 332 331
208 195 163 155 169 158 142 127 139 134 143 139 141 138 149 162 169 148 147 132 126 125 127 132 125 124 116 117 142 73 57 41 36 60 46 3 2 11 17 359 351 350 360 349 338 358 348 330 325
200 187 169 156 161 159 126 129 136 128 128 131 131 139 156 156 167 147 135 124 125 128 126 133 133 126 119 107 83 88 57 8 50 69 65 18 358 8 4 344 2 357 353 346 337 338 334 319 309
220 177 148 135 140 141 127 122 113 109 98 105 115 104 101 124 141 135 132 134 131 132 134 131 149 143 124 110 93 77 69 11 57 56 62 13 352 4 348 348 335 347 351 346 337 343 336 325 327
189 137 134 128 141 140 128 120 112 108 102 84 79 86 87 94 108 113 130 138 145 143 140 140 147 136 129 138 144 153 114 18 132 118 91 2 1 15 351 345 328 333 352 341 327 348 341 324 340
141 144 151 139 140 130 125 114 110 101 82 67 54 55 72 81 88 89 94 109 118 129 138 128 131 139 139 144 123 70 74 297 25 159 134 221 225 68 336 329 327 341 353 325 333 356 344 333 331
144 163 159 150 151 152 151 131 115 110 94 78 61 57 60 70 81 83 77 79 78 74 88 124 132 135 132 132 126 164 193 218 227 187 180 227 139 152 332 316 318 335 342 343 333 356 342 347 323
137 159 169 172 178 159 161 128 110 109 94 86 82 74 68 67 74 85 77 80 72 61 48 41 80 85 102 113 132 228 314 316 351 358 28 297 181 209 131 287 308 328 335 334 330 342 346 341 324
154 174 185 192 190 176 164 142 106 91 92 91 85 83 77 72 68 72 72 69 68 65 54 46 62 64 84 114 151 183 246 305 325 319 309 292 246 202 172 289 299 320 326 326 319 311 317 307 316
199 186 162 180 195 176 153 115 96 82 81 83 81 79 80 76 75 72 67 64 65 69 66 65 72 72 95 144 215 202 216 263 266 278 279 289 292 279 248 292 271 296 301 296 306 302 302 281 277
197 209 221 190 179 156 135 104 105 97 87 82 78 75 77 75 72 71 68 64 63 65 67 65 69 68 71 234 256 222 228 260 270 303 305 297 300 290 270 262 249 228 258 293 300 302 307 306 290
206 200 223 245 203 156 116 113 119 114 102 93 87 80 75 75 72 70 64 62 62 58 53 63 62 56 35 326 308 286 282 312 325 312 308 310 302 301 312 286 270 242 220 231 255 268 285 299 305
251 258 216 213 179 140 138 145 148 139 121 107 96 89 85 85 83 79 69 62 59 61 55 56 69 54 35 2 333 340 339 335 322 303 313 318 311 316 302 290 276 257 237 212 212 254 272 286 273
215 230 256 273 207 139 137 102 119 131 124 116 105 95 90 86 85 80 73 66 60 59 56 49 44 45 34 2 344 350 350 338 327 307 304 290 285 287 286 281 284 279 268 241 213 231 246 267 275
304 307 321 315 318 156 119 109 112 117 114 111 105 98 93 87 87 84 76 70 61 53 48 47 32 26 34 3 358 356 2 344 331 318 314 307 297 290 287 289 292 293 285 270 237 239 245 246 252